Current weather by "City, St" or "zip code"  
 
Advertise Here

Current Conditions: Bennington Morse State Airport, VT

Fair


61.0 F

Last Updated on Jul 27 2021, 12:54 am EDT
Humidity: 93%
Wind Speed: N 0.0 mph
Barometer 29.94 in
Dewpoint: 59.0 F
Visibility: 7.00 mi
Precip: --
Heat Index: NA
Wind Chill: NA
Current conditions at:

Bennington Morse State Airport, VT (KDDH)

Lat: 42.89355 Lon: 73.2486

Local Radar Image active severe weather and emergency alerts image image weather storm and storm spotter reports image weather observation monitoring service image
Local
Radar
Active
Alerts
Storm Reports Obs
Monitoring

Sign-up For Email & Text Message Weather Alert Notification Services


Advertise Here

Observation History for Bennington Morse State Airport, VT


Time Wind
(mph)
Vis
(mi)
Weather Precip (in) Temperature (F) Relative
Humidity
Wind
Chill
(F)
Heat
Index
(F)
Pressure
Air Dwpt altimeter
(in)
sea level
(mb)
Rmks
12:54 am EDT N 0.0 7.00 Fair -- 61.0 59.0 93% NA NA 29.94 1013.5
11:54 pm EDT N 0.0 8.00 Fair -- 62.0 60.1 93% NA NA 29.95 1013.8
10:54 pm EDT S 4.6 9.00 Partly Cloudy -- 63.0 60.1 90% 64 NA 29.94 1013.3
9:54 pm EDT S 3.5 9.00 Fair -- 66.0 61.0 84% NA NA 29.93 1013.2
8:54 pm EDT SW 8.1 8.00 Fair -- 70.0 62.1 76% NA NA 29.92 1012.6
7:54 pm EDT SW 5.8 8.00 Fair -- 75.0 62.1 64% NA NA 29.90 1011.9
6:54 pm EDT SW 5.8 8.00 Fair -- 78.0 62.1 58% NA NA 29.88 1011.4
5:54 pm EDT W 5.8 8.00 Fair -- 80.0 62.1 54% NA 81 29.89 1011.5
4:54 pm EDT 5.8 7.00 Partly Cloudy -- 81.0 63.0 54% NA 82 29.90 1011.9
3:54 pm EDT SW 8.1 5.00 Mostly Cloudy with Haze -- 81.0 64.0 57% NA 83 29.90 1012.1
2:54 pm EDT W 5.8 3.00 Partly Cloudy with Haze -- 79.0 64.9 62% NA NA 29.91 1012.3
1:54 pm EDT 4.6 3.00 Mostly Cloudy with Haze -- 80.0 64.9 60% NA 82 29.91 1012.5
12:54 pm EDT 4.6 3.00 Mostly Cloudy with Haze -- 78.0 64.9 64% NA NA 29.92 1012.7
11:54 am EDT 4.6 4.00 Mostly Cloudy with Haze -- 75.0 63.0 66% NA NA 29.92 1012.6
10:54 am EDT 5.8 5.00 Mostly Cloudy with Haze -- 75.0 66.0 74% NA NA 29.92 1012.8
9:54 am EDT NW 5.8 6.00 Overcast with Haze -- 73.0 66.0 79% NA NA 29.92 1012.5
8:54 am EDT 3.5 7.00 Mostly Cloudy -- 71.0 66.0 84% NA NA 29.92 1012.5
7:54 am EDT N 0.0 2.00 Fog/Mist -- 67.0 66.0 97% NA NA 29.91 1012.3
6:54 am EDT N 0.0 1.75 Fog/Mist -- 63.0 63.0 100% NA NA 29.90 1012.0
5:54 am EDT N 0.0 2.00 Fog/Mist Trace 62.0 62.1 100% NA NA 29.90 1012.0
4:54 am EDT N 0.0 3.00 Fog/Mist -- 62.0 61.0 96% NA NA 29.89 1011.8
3:54 am EDT S 3.5 3.00 Fog/Mist -- 61.0 61.0 100% NA NA 29.90 1011.8
2:54 am EDT SE 4.6 4.00 Fog/Mist -- 62.0 61.0 96% 62 NA 29.89 1011.7
1:54 am EDT S 3.5 3.00 Fog/Mist -- 63.0 62.1 97% NA NA 29.90 1011.8

Regional Weather Observation


Bennington Morse State Airport, VT (KDDH)

Fair
61.0 F

Schenectady Airport, NY (KSCH)

Fair
73.0 F

Albany International Airport, NY (KALB)

A Few Clouds
64.0 F

North Adams Harriman-and-West Airport, MA (KAQW)

A Few Clouds
63.0 F

Pittsfield Municipal Airport, MA (KPSF)

Fair
64.0 F

Rutland-Southern Vermont Regional Airport, VT (KRUT)

Fair
62.0 F
Advertise Here

Advertise Here